Regional Weather Roundup
Issued by NWS

Home | Current Version | Previous Version | Text Only | Print | Product List | Glossary Off
Versions: 1 2 3 4 5 6 7 8 9 10 11 12 13 14 15 16 17 18 19 20 21 22 23 24 25 26 27

000
ASUS45 KBOU 190206
RWRCO

WEATHER ROUNDUP FOR COLORADO
NATIONAL WEATHER SERVICE DENVER/BOULDER CO
800 PM MDT FRI APR 18 2014

NOTE: "FAIR" INDICATES FEW OR NO CLOUDS BELOW 12000 FEET WITH NO
SIGNIFICANT WEATHER AND/OR OBSTRUCTIONS TO VISIBILITY.

COZ001>005-013-030-031-190300-
...NORTHWEST COLORADO...

CITY           SKY/WX    TMP DP  RH WIND       PRES   REMARKS
CRAIG          CLOUDY    55  32  41 SW8       29.95R
HAYDEN         CLOUDY    55  27  33 SW8       29.99R
MEEKER         CLOUDY    64  20  18 SW14      29.96S
MOUNT WERNER   CLOUDY    46  10  23 SW21G29   30.19R
STEAMBOAT SPGS CLOUDY    58  16  19 S6        29.98S
WALDEN         CLOUDY    52  21  30 SW13G18   30.03S
$$

COZ006>008-011-190300-
...WEST CENTRAL VALLEYS...

CITY           SKY/WX    TMP DP  RH WIND       PRES   REMARKS
GRAND JUNCTION MOCLDY    64  26  23 NW8       29.89R
MONTROSE       CLOUDY    66  26  22 W17       29.97R
EAGLE          CLOUDY    63  25  23 S9        29.99R
RIFLE          MOCLDY    64  27  24 W6        29.92S
DELTA          CLOUDY    73  20  14 S14       29.92R
NUCLA            N/A     66  21  18 SW13      30.01R
$$

COZ017>023-064>068-190300-
...SOUTHWEST COLORADO...

CITY           SKY/WX    TMP DP  RH WIND       PRES   REMARKS
DURANGO        CLOUDY    62  23  22 SW12      30.05R
CORTEZ         CLOUDY    63  26  24 SW16      30.03R
PAGOSA SPRINGS CLOUDY    61  17  18 W8G29     30.09S
TELLURIDE      NOT AVBL
WOLF CREEK PAS FLURRIES  34  23  64 SW12G26   30.30R WCI  25
$$

COZ009-010-012-014-032>034-037-058>063-190300-
...CENTRAL COLORADO...

CITY           SKY/WX    TMP DP  RH WIND       PRES   REMARKS
ASPEN          CLOUDY    55  27  34 SE10      30.05S
BUENA VISTA    CLOUDY    55  23  29 SW8       30.07S
COPPER MTN     CLOUDY    41  21  45 SW10      30.28S
BERTHOUD PASS  CLOUDY    32  23  69 W13G23    30.30S WCI  22
COTTONWOOD PAS CLOUDY    52  18  25 W8        30.17S
GUNNISON       PTCLDY    54  21  28 W3        30.11R
KREMMLING      CLOUDY    54  21  28 CALM      30.03R
LEADVILLE      CLOUDY    43  22  43 SE5       30.17S
MONARCH PASS   PTCLDY    36  21  55 W18       30.38S
SALIDA         CLOUDY    57  23  26 SW5       30.12S
SUNLIGHT       CLOUDY    43  27  52 CALM      30.22S
WILKERSON PASS CLOUDY    39  21  48 W10G18    30.26S
$$

COZ069>075-190300-
...SAN LUIS VALLEY/SANGRE DE CRISTO MOUNTAINS...

CITY           SKY/WX    TMP DP  RH WIND       PRES   REMARKS
ALAMOSA        PTCLDY    54  28  36 SW7       30.05R
LA VETA PASS   CLOUDY    45  23  42 SW12G20   30.19F
SAGUACHE       PTCLDY    55  21  26 N10       30.07S
$$

COZ035-036-038>040-190300-
...NORTHERN COLORADO FRONT RANGE...

CITY           SKY/WX    TMP DP  RH WIND       PRES   REMARKS
DENVER INTL AP CLOUDY    67  27  22 N12       29.86R
DMNS CITY PARK   N/A     69  25  19 NW3       29.86R
AURORA         MOCLDY    63  30  29 NW7       29.89R
FRONT RANGE AP NOT AVBL
ERIE MUNI ARPT CLOUDY    63  31  30 CALM      29.85R
BOULDER MUN AP CLOUDY    66  32  28 W8        29.86R
CENTENNIAL     CLOUDY    66  28  24 N7        29.90R
BROOMFIELD     MOCLDY    66  30  26 W12G17    29.89R
FORT COLLINS   CLOUDY    66  30  26 S6        29.86R
LONGMONT       CLOUDY    64  34  32 SW6       29.87R
$$

COZ041-046-047-076>085-087-088-190300-
...PIKES PEAK/PALMER DIVIDE AND SOUTHERN FOOTHILLS...

CITY           SKY/WX    TMP DP  RH WIND       PRES   REMARKS
COLO. SPRINGS  CLOUDY    65  28  24 NW8       29.95R
A. F. ACADEMY  CLOUDY    64  25  22 W2        29.96S
ELLICOTT       NOT AVBL
FALCON         CLOUDY    62  26  25 W9        30.00S
FORT CARSON    CLOUDY    64  30  27 W10       29.92R
LIMON          CLOUDY    60  29  30 SE9       29.90S
MONUMENT HILL  CLOUDY    59  27  29 SW14      29.99R
TRINIDAD       CLOUDY    66  36  32 S24G33    29.95R
$$

COZ042>045-048>051-090-091-190300-
...NORTHEAST COLORADO...

CITY           SKY/WX    TMP DP  RH WIND       PRES   REMARKS
GREELEY ARPT   CLOUDY    68  30  24 SE9       29.83S
AKRON          MOCLDY    64  32  30 SE15      29.86S
BURLINGTON     PTCLDY    63  38  39 S17       29.91R
WRAY           PTCLDY    67  36  31 SE13      29.86S
STERLING       MOCLDY    70  37  30 S13       29.82R
HOLYOKE        PTCLDY    63  36  36 SE13      29.85S
FORT MORGAN    CLOUDY    69  30  22 W5        29.87R
$$

COZ086-089-092>099-190300-
...SOUTHEAST COLORADO...

CITY           SKY/WX    TMP DP  RH WIND       PRES   REMARKS
PUEBLO         CLOUDY    70  33  25 SW5       29.85R
LA JUNTA       MOCLDY    71  36  27 SE12      29.83F
LAMAR          MOCLDY    70  38  31 S21       29.84S
SPRINGFIELD      N/A     64  38  38 S21       29.95R
$$



USA.gov is the U.S. government's official web portal to all federal, state and local government web resources and services.